Time,TemperatureF,DewpointF,PressureIn,WindDirection,WindDirectionDegrees,WindSpeedMPH,WindSpeedGustMPH,Humidity,HourlyPrecipIn,Conditions,Clouds,dailyrainin,SoftwareType,DateUTC
2013-06-25 00:13:00,58.8,57.0,29.58,ESE,105,3.0,5.0,92,0.00,,,0.00,weatherlink.com 1.10,2013-06-25 07:13:00,
2013-06-25 00:28:00,58.7,56.0,29.58,ENE,75,2.0,3.0,92,0.00,,,0.00,weatherlink.com 1.10,2013-06-25 07:28:00,
2013-06-25 00:43:00,58.4,56.0,29.58,NE,40,1.0,3.0,92,0.00,,,0.00,weatherlink.com 1.10,2013-06-25 07:43:00,
2013-06-25 00:58:00,57.9,56.0,29.59,WSW,238,2.0,4.0,92,0.00,,,0.00,weatherlink.com 1.10,2013-06-25 07:58:00,
2013-06-25 01:13:00,57.4,56.0,29.59,WSW,245,1.0,3.0,94,0.00,,,0.00,weatherlink.com 1.10,2013-06-25 08:13:00,
2013-06-25 01:28:00,57.3,56.0,29.59,WNW,294,1.0,2.0,94,0.00,,,0.00,weatherlink.com 1.10,2013-06-25 08:28:00,
2013-06-25 01:43:00,57.2,56.0,29.58,NNE,15,2.0,3.0,95,0.00,,,0.00,weatherlink.com 1.10,2013-06-25 08:43:00,
2013-06-25 01:58:00,57.2,56.0,29.58,NNE,21,1.0,4.0,95,0.00,,,0.00,weatherlink.com 1.10,2013-06-25 08:58:00,
2013-06-25 02:13:00,57.3,56.0,29.58,ENE,60,0.0,6.0,95,0.00,,,0.00,weatherlink.com 1.10,2013-06-25 09:13:00,
2013-06-25 02:28:00,57.7,56.0,29.58,ENE,59,2.0,5.0,94,0.00,,,0.00,weatherlink.com 1.10,2013-06-25 09:28:00,
2013-06-25 02:43:00,57.6,56.0,29.58,NNE,30,2.0,4.0,94,0.00,,,0.00,weatherlink.com 1.10,2013-06-25 09:43:00,
2013-06-25 02:59:00,57.5,56.0,29.58,North,11,3.0,6.0,94,0.00,,,0.00,weatherlink.com 1.10,2013-06-25 09:59:00,
2013-06-25 03:14:00,57.4,56.0,29.58,NNE,17,3.0,6.0,94,0.00,,,0.00,weatherlink.com 1.10,2013-06-25 10:14:00,
2013-06-25 03:29:00,57.3,55.0,29.57,NNE,18,5.0,7.0,93,0.00,,,0.00,weatherlink.com 1.10,2013-06-25 10:29:00,
2013-06-25 03:44:00,57.3,55.0,29.57,NE,40,5.0,7.0,93,0.00,,,0.00,weatherlink.com 1.10,2013-06-25 10:44:00,
2013-06-25 03:59:00,57.4,55.0,29.57,North,360,4.0,8.0,93,0.00,,,0.00,weatherlink.com 1.10,2013-06-25 10:59:00,
2013-06-25 04:14:00,57.4,55.0,29.57,NE,41,3.0,7.0,93,0.00,,,0.00,weatherlink.com 1.10,2013-06-25 11:14:00,
2013-06-25 04:29:00,57.2,55.0,29.57,NE,40,4.0,6.0,93,0.00,,,0.00,weatherlink.com 1.10,2013-06-25 11:29:00,
2013-06-25 04:44:00,57.1,55.0,29.57,NNE,33,4.0,4.0,93,0.00,,,0.00,weatherlink.com 1.10,2013-06-25 11:44:00,
2013-06-25 04:59:00,56.9,55.0,29.57,North,9,1.0,5.0,94,0.00,,,0.00,weatherlink.com 1.10,2013-06-25 11:59:00,
2013-06-25 05:14:00,56.5,55.0,29.59,SW,235,2.0,3.0,94,0.00,,,0.00,weatherlink.com 1.10,2013-06-25 12:14:00,
2013-06-25 05:29:00,56.1,55.0,29.59,West,265,3.0,6.0,95,0.00,,,0.00,weatherlink.com 1.10,2013-06-25 12:29:00,
2013-06-25 05:44:00,56.3,55.0,29.59,West,281,1.0,3.0,95,0.01,,,0.01,weatherlink.com 1.10,2013-06-25 12:44:00,
2013-06-25 05:59:00,56.4,55.0,29.59,NW,323,2.0,3.0,95,0.02,,,0.02,weatherlink.com 1.10,2013-06-25 12:59:00,
2013-06-25 06:14:00,56.4,55.0,29.59,NNE,19,2.0,3.0,96,0.03,,,0.03,weatherlink.com 1.10,2013-06-25 13:14:00,
2013-06-25 06:29:00,56.6,56.0,29.59,NE,40,2.0,5.0,96,0.03,,,0.03,weatherlink.com 1.10,2013-06-25 13:29:00,
2013-06-25 06:44:00,56.9,56.0,29.58,ESE,115,3.0,8.0,96,0.02,,,0.03,weatherlink.com 1.10,2013-06-25 13:44:00,
2013-06-25 06:59:00,57.5,56.0,29.58,ENE,64,3.0,5.0,94,0.01,,,0.00,weatherlink.com 1.10,2013-06-25 13:59:00,
2013-06-25 07:14:00,57.4,56.0,29.58,NNW,334,2.0,5.0,94,0.00,,,0.00,weatherlink.com 1.10,2013-06-25 14:14:00,
2013-06-25 07:29:00,57.3,56.0,29.58,North,360,3.0,6.0,95,0.00,,,0.00,weatherlink.com 1.10,2013-06-25 14:29:00,
2013-06-25 07:44:00,57.7,56.0,29.58,North,10,7.0,7.0,95,0.00,,,0.00,weatherlink.com 1.10,2013-06-25 14:44:00,
2013-06-25 07:59:00,57.7,56.0,29.58,NE,48,3.0,6.0,95,0.00,,,0.00,weatherlink.com 1.10,2013-06-25 14:59:00,
2013-06-25 08:14:00,58.4,57.0,29.59,North,5,4.0,6.0,95,0.00,,,0.00,weatherlink.com 1.10,2013-06-25 15:14:00,
2013-06-25 08:29:00,59.3,58.0,29.59,ENE,57,2.0,5.0,94,0.00,,,0.00,weatherlink.com 1.10,2013-06-25 15:29:00,
2013-06-25 08:44:00,59.8,58.0,29.59,East,82,5.0,7.0,92,0.00,,,0.00,weatherlink.com 1.10,2013-06-25 15:44:00,
2013-06-25 08:59:00,61.2,58.0,29.59,NNE,29,5.0,5.0,89,0.00,,,0.00,weatherlink.com 1.10,2013-06-25 15:59:00,
2013-06-25 09:14:00,61.5,58.0,29.59,NE,36,2.0,3.0,89,0.00,,,0.00,weatherlink.com 1.10,2013-06-25 16:14:00,
2013-06-25 09:29:00,61.7,58.0,29.59,NE,46,0.0,3.0,88,0.00,,,0.00,weatherlink.com 1.10,2013-06-25 16:29:00,
2013-06-25 09:44:00,61.6,57.0,29.61,South,186,15.0,17.0,86,0.00,,,0.00,weatherlink.com 1.10,2013-06-25 16:44:00,
2013-06-25 09:59:00,59.4,57.0,29.62,SSW,195,15.0,23.0,90,0.00,,,0.00,weatherlink.com 1.10,2013-06-25 16:59:00,
2013-06-25 10:14:00,58.5,56.0,29.62,South,169,10.0,18.0,92,0.01,,,0.01,weatherlink.com 1.10,2013-06-25 17:14:00,
2013-06-25 10:29:00,58.7,56.0,29.62,SSE,165,6.0,11.0,91,0.02,,,0.02,weatherlink.com 1.10,2013-06-25 17:29:00,
2013-06-25 10:44:00,58.7,56.0,29.62,SE,144,6.0,15.0,90,0.03,,,0.03,weatherlink.com 1.10,2013-06-25 17:44:00,
2013-06-25 10:59:00,58.2,56.0,29.63,SE,136,3.0,10.0,92,0.04,,,0.04,weatherlink.com 1.10,2013-06-25 17:59:00,
2013-06-25 11:14:00,59.1,57.0,29.62,SE,134,13.0,15.0,92,0.04,,,0.05,weatherlink.com 1.10,2013-06-25 18:14:00,
2013-06-25 11:29:00,60.0,57.0,29.63,ESE,119,9.0,11.0,90,0.03,,,0.05,weatherlink.com 1.10,2013-06-25 18:29:00,
2013-06-25 11:44:00,60.7,57.0,29.63,SSE,155,14.0,17.0,87,0.02,,,0.05,weatherlink.com 1.10,2013-06-25 18:44:00,
2013-06-25 11:59:00,61.5,57.0,29.63,South,184,5.0,14.0,86,0.01,,,0.05,weatherlink.com 1.10,2013-06-25 18:59:00,
2013-06-25 12:14:00,62.4,58.0,29.63,SSE,160,8.0,14.0,84,0.00,,,0.05,weatherlink.com 1.10,2013-06-25 19:14:00,
2013-06-25 12:29:00,64.1,58.0,29.63,SE,146,9.0,13.0,81,0.00,,,0.05,weatherlink.com 1.10,2013-06-25 19:29:00,
2013-06-25 12:44:00,65.4,58.0,29.63,South,181,6.0,12.0,78,0.00,,,0.05,weatherlink.com 1.10,2013-06-25 19:44:00,
2013-06-25 12:59:00,65.6,60.0,29.63,SSE,167,13.0,19.0,81,0.00,,,0.05,weatherlink.com 1.10,2013-06-25 19:59:00,
2013-06-25 13:15:00,64.4,59.0,29.63,South,181,7.0,15.0,83,0.00,,,0.05,weatherlink.com 1.10,2013-06-25 20:15:00,
2013-06-25 13:30:00,64.1,59.0,29.64,SSW,207,9.0,13.0,84,0.00,,,0.05,weatherlink.com 1.10,2013-06-25 20:30:00,
2013-06-25 13:45:00,65.3,60.0,29.64,South,177,7.0,13.0,82,0.00,,,0.05,weatherlink.com 1.10,2013-06-25 20:45:00,
2013-06-25 14:00:00,65.5,60.0,29.64,South,184,10.0,13.0,81,0.00,,,0.05,weatherlink.com 1.10,2013-06-25 21:00:00,
2013-06-25 14:15:00,65.1,58.0,29.64,SSW,196,8.0,14.0,79,0.00,,,0.05,weatherlink.com 1.10,2013-06-25 21:15:00,
2013-06-25 14:30:00,65.7,59.0,29.64,South,183,10.0,13.0,78,0.00,,,0.05,weatherlink.com 1.10,2013-06-25 21:30:00,
2013-06-25 14:45:00,66.3,59.0,29.64,South,190,13.0,16.0,76,0.00,,,0.05,weatherlink.com 1.10,2013-06-25 21:45:00,
2013-06-25 15:00:00,66.0,58.0,29.64,SSW,202,9.0,13.0,75,0.00,,,0.05,weatherlink.com 1.10,2013-06-25 22:00:00,
2013-06-25 15:15:00,66.9,59.0,29.64,SSW,192,13.0,17.0,75,0.00,,,0.05,weatherlink.com 1.10,2013-06-25 22:15:00,
2013-06-25 15:30:00,68.3,60.0,29.64,SW,214,7.0,16.0,75,0.00,,,0.05,weatherlink.com 1.10,2013-06-25 22:30:00,
2013-06-25 15:45:00,68.5,59.0,29.64,SSW,213,6.0,11.0,72,0.00,,,0.05,weatherlink.com 1.10,2013-06-25 22:45:00,
2013-06-25 16:00:00,68.8,57.0,29.64,SSW,205,5.0,9.0,66,0.00,,,0.05,weatherlink.com 1.10,2013-06-25 23:00:00,
2013-06-25 16:15:00,67.4,56.0,29.64,SW,230,5.0,8.0,67,0.00,,,0.05,weatherlink.com 1.10,2013-06-25 23:15:00,
2013-06-25 16:30:00,67.8,58.0,29.64,SW,227,2.0,7.0,71,0.00,,,0.05,weatherlink.com 1.10,2013-06-25 23:30:00,
2013-06-25 16:45:00,69.0,58.0,29.64,SW,228,2.0,8.0,67,0.00,,,0.05,weatherlink.com 1.10,2013-06-25 23:45:00,
2013-06-25 17:00:00,68.9,57.0,29.64,WSW,258,5.0,8.0,67,0.00,,,0.05,weatherlink.com 1.10,2013-06-26 00:00:00,
2013-06-25 17:15:00,69.8,57.0,29.63,West,259,1.0,6.0,64,0.00,,,0.05,weatherlink.com 1.10,2013-06-26 00:15:00,
2013-06-25 17:30:00,70.2,56.0,29.63,WSW,242,2.0,6.0,62,0.00,,,0.05,weatherlink.com 1.10,2013-06-26 00:30:00,
2013-06-25 17:45:00,70.8,58.0,29.63,WSW,246,3.0,5.0,64,0.00,,,0.05,weatherlink.com 1.10,2013-06-26 00:45:00,
2013-06-25 18:00:00,70.2,58.0,29.63,SW,236,3.0,7.0,65,0.00,,,0.05,weatherlink.com 1.10,2013-06-26 01:00:00,
2013-06-25 18:15:00,69.8,58.0,29.63,SW,223,6.0,7.0,66,0.00,,,0.05,weatherlink.com 1.10,2013-06-26 01:15:00,
2013-06-25 18:30:00,68.2,58.0,29.64,WSW,246,1.0,6.0,70,0.00,,,0.05,weatherlink.com 1.10,2013-06-26 01:30:00,
2013-06-25 18:45:00,67.8,58.0,29.63,WNW,295,1.0,5.0,70,0.00,,,0.05,weatherlink.com 1.10,2013-06-26 01:45:00,
2013-06-25 19:00:00,68.9,57.0,29.64,WSW,240,3.0,6.0,65,0.00,,,0.05,weatherlink.com 1.10,2013-06-26 02:00:00,
2013-06-25 19:15:00,68.2,58.0,29.64,WSW,241,2.0,4.0,69,0.00,,,0.05,weatherlink.com 1.10,2013-06-26 02:15:00,
2013-06-25 19:30:00,68.4,59.0,29.64,WSW,246,4.0,4.0,73,0.00,,,0.05,weatherlink.com 1.10,2013-06-26 02:30:00,
2013-06-25 19:45:00,67.0,59.0,29.64,WSW,246,1.0,3.0,76,0.00,,,0.05,weatherlink.com 1.10,2013-06-26 02:45:00,
2013-06-25 20:00:00,66.2,59.0,29.65,WSW,245,0.0,1.0,78,0.00,,,0.05,weatherlink.com 1.10,2013-06-26 03:00:00,
2013-06-25 20:15:00,66.0,60.0,29.66,SSW,207,5.0,5.0,80,0.00,,,0.05,weatherlink.com 1.10,2013-06-26 03:15:00,
2013-06-25 20:30:00,62.8,58.0,29.67,SSW,192,8.0,22.0,83,0.00,,,0.05,weatherlink.com 1.10,2013-06-26 03:30:00,
2013-06-25 20:45:00,62.1,58.0,29.67,South,180,5.0,10.0,87,0.00,,,0.05,weatherlink.com 1.10,2013-06-26 03:45:00,
2013-06-25 21:00:00,62.3,58.0,29.68,South,180,11.0,16.0,86,0.00,,,0.05,weatherlink.com 1.10,2013-06-26 04:00:00,
2013-06-25 21:15:00,62.6,57.0,29.69,SSE,168,15.0,20.0,81,0.00,,,0.05,weatherlink.com 1.10,2013-06-26 04:15:00,
2013-06-25 21:30:00,62.3,57.0,29.69,South,172,11.0,17.0,84,0.00,,,0.05,weatherlink.com 1.10,2013-06-26 04:30:00,
2013-06-25 21:45:00,62.2,58.0,29.70,SSW,196,9.0,12.0,85,0.00,,,0.05,weatherlink.com 1.10,2013-06-26 04:45:00,
2013-06-25 22:00:00,62.8,57.0,29.70,South,176,13.0,19.0,82,0.00,,,0.05,weatherlink.com 1.10,2013-06-26 05:00:00,
2013-06-25 22:15:00,62.7,58.0,29.70,SSW,194,10.0,15.0,84,0.00,,,0.05,weatherlink.com 1.10,2013-06-26 05:15:00,
2013-06-25 22:30:00,61.4,58.0,29.70,SSW,196,7.0,15.0,87,0.00,,,0.05,weatherlink.com 1.10,2013-06-26 05:30:00,
2013-06-25 22:45:00,62.1,57.0,29.70,SE,138,7.0,12.0,83,0.00,,,0.05,weatherlink.com 1.10,2013-06-26 05:45:00,
2013-06-25 23:00:00,62.5,56.0,29.71,SSE,157,12.0,17.0,80,0.00,,,0.05,weatherlink.com 1.10,2013-06-26 06:00:00,
2013-06-25 23:15:00,62.7,56.0,29.71,SSE,155,13.0,19.0,78,0.00,,,0.05,weatherlink.com 1.10,2013-06-26 06:15:00,
2013-06-25 23:30:00,62.4,57.0,29.72,South,184,11.0,17.0,81,0.00,,,0.05,weatherlink.com 1.10,2013-06-26 06:30:00,
2013-06-25 23:58:00,-999.0,-99.9,29.72,North,-999,-999.0,-999.0,-999,0.00,,,0.00,weatherlink.com 1.10,2013-06-26 06:58:00,